Aspen, CO

6:57 AM MDT on May 27, 2018 (GMT -0600)
Aspen-Pitkin County / Sardy Field

Weather History for KASE - February, 2014

Change the Weather History Date:

Monday, February 3, 2014

  Actual Average Record
Temperature  
Mean Temperature 16 °F 20 °F  
Max Temperature 27 °F 33 °F 68 °F (1998)
Min Temperature 5 °F 7 °F -25 °F (2011)
Degree Days  
Heating Degree Days 49 45  
Month to date heating degree days 159 135  
Since 1 July heating degree days 5233 5257  
Cooling Degree Days 0 0  
Month to date cooling degree days 0 0  
Year to date cooling degree days 0 0  
Moisture  
Dew Point 11 °F    
Average Humidity 77    
Maximum Humidity 92    
Minimum Humidity 62    
Precipitation  
Precipitation T in 0.03 in 1.22 in (1989)
Month to date precipitation T 0.10  
Year to date precipitation 1.04 1.13  
Sea Level Pressure  
Sea Level Pressure 29.85 in    
Wind  
Wind Speed 4 mph (SW)    
Max Wind Speed 10 mph    
Max Gust Speed 13 mph    
Visibility 9 miles    
Events Snow    
T = Trace of Precipitation, MM = Missing Value Source: NWS Daily Summary

Daily Weather History Graph

Daily Weather History Graph

Search for Another Location

Airport or City:

Astronomy

Feb. 03, 2014 Rise Set
Actual Time 7:12 AM MST 5:30 PM MST
Civil Twilight 6:44 AM MST 5:58 PM MST
Nautical Twilight 6:12 AM MST 6:30 PM MST
Astronomical Twilight 5:41 AM MST 7:02 PM MST
Moon 9:18 AM MST (2/3) 10:21 PM MST (2/3)
Length of Visible Light 11h 14m
Length of Day
10h 18m
Waxing Crescent, 20% of the Moon is Illuminated
Feb 3
Waxing Crescent
Feb 6
First Quarter
Feb 14
Full
Feb 22
Last Quarter
Mar 1
New

Hourly Weather History & Observations

Time (MST) Temp. Windchill Dew Point Humidity Pressure Visibility Wind Dir Wind Speed Gust Speed Precip Events Conditions
12:53 AM 8.1 °F -2.0 °F 1.9 °F 76% 30.01 in 10.0 mi SSE 5.8 mph - N/A   Partly Cloudy
1:53 AM 7.0 °F -6.6 °F 1.9 °F 80% 29.96 in 10.0 mi South 9.2 mph - N/A   Overcast
2:53 AM 10.9 °F - 5.0 °F 77% 29.93 in 10.0 mi Calm Calm - N/A   Overcast
3:53 AM 10.9 °F 1.4 °F 6.1 °F 81% 29.93 in 10.0 mi SSE 5.8 mph - N/A   Overcast
4:53 AM 10.9 °F 4.7 °F 6.1 °F 81% 29.97 in 10.0 mi South 3.5 mph - N/A   Overcast
5:53 AM 10.0 °F 1.8 °F 5.0 °F 80% 29.99 in 10.0 mi SSW 4.6 mph - N/A   Overcast
6:53 AM 9.0 °F 2.4 °F 3.9 °F 80% 30.00 in 10.0 mi SSW 3.5 mph - N/A   Overcast
7:53 AM 10.9 °F - 7.0 °F 84% 29.97 in 7.0 mi Calm Calm - N/A   Overcast
8:53 AM 15.1 °F - 10.9 °F 84% 29.96 in 5.0 mi Calm Calm - N/A   Overcast
9:53 AM 19.0 °F 12.3 °F 10.0 °F 68% 29.93 in 6.0 mi North 4.6 mph - N/A   Haze
10:53 AM 21.0 °F - 12.0 °F 68% 29.90 in 10.0 mi Calm Calm - N/A   Mostly Cloudy
11:53 AM 24.1 °F 17.0 °F 14.0 °F 65% 29.85 in 10.0 mi North 5.8 mph - N/A   Overcast
12:53 PM 25.0 °F 18.1 °F 17.1 °F 72% 29.81 in 10.0 mi North 5.8 mph - N/A   Mostly Cloudy
1:53 PM 26.1 °F 19.4 °F 18.0 °F 71% 29.79 in 10.0 mi North 5.8 mph - N/A   Overcast
2:53 PM 26.1 °F 18.4 °F 17.1 °F 69% 29.75 in 10.0 mi NNW 6.9 mph - N/A   Mostly Cloudy
3:53 PM 25.0 °F 15.5 °F 16.0 °F 69% 29.77 in 10.0 mi North 9.2 mph - N/A   Mostly Cloudy
4:16 PM 23.0 °F 13.1 °F 17.1 °F 78% 29.72 in 6.0 mi North 9.2 mph - N/A   Haze
4:53 PM 21.9 °F 13.4 °F 17.1 °F 82% 29.80 in 10.0 mi North 6.9 mph - N/A   Mostly Cloudy
5:53 PM 21.0 °F - 16.0 °F 81% 29.82 in 6.0 mi Calm Calm - 0.00 in   Haze
6:53 PM 18.0 °F - 15.1 °F 88% 29.84 in 6.0 mi Calm Calm - N/A   Overcast
7:53 PM 17.1 °F - 14.0 °F 88% 29.84 in 8.0 mi Calm Calm - N/A   Overcast
8:00 PM 16.0 °F - 12.9 °F 88% 29.73 in 7.0 mi Calm Calm - N/A   Overcast
8:28 PM 15.1 °F 7.7 °F 10.9 °F 84% 29.72 in 10.0 mi SW 4.6 mph - N/A   Overcast
8:51 PM 14.0 °F 8.2 °F 10.4 °F 86% 29.73 in 10.0 mi SSW 3.5 mph - N/A   Overcast
8:53 PM 14.0 °F - 10.9 °F 88% 29.82 in 10.0 mi Calm Calm - N/A   Overcast
9:53 PM 15.1 °F 9.4 °F 10.9 °F 84% 29.79 in 6.0 mi South 3.5 mph - 0.00 in Snow Light Snow
10:53 PM 12.0 °F 2.7 °F 7.0 °F 80% 29.79 in 10.0 mi South 5.8 mph - 0.00 in   Mostly Cloudy
11:53 PM 12.9 °F 3.8 °F 8.1 °F 81% 29.75 in 10.0 mi South 5.8 mph - N/A   Overcast